Weather History for Mammoth, CA

Change the Weather History Date:

Wednesday, June 12, 2013

  Actual Average Record
Temperature  
Mean Temperature 62 °F -  
Max Temperature 75 °F 70 °F 80 °F (2012)
Min Temperature 50 °F 58 °F 32 °F (2012)
Degree Days  
Heating Degree Days 2    
Growing Degree Days 12 (Base 50)    
Moisture  
Dew Point 25 °F    
Average Humidity 24    
Maximum Humidity 50    
Minimum Humidity 13    
Precipitation  
Precipitation 0.00 in - - ()
Sea Level Pressure  
Sea Level Pressure 30.18 in    
Wind  
Wind Speed 11 mph (SW)    
Max Wind Speed 28 mph    
Max Gust Speed 39 mph    
Visibility 10 miles    
Events      
Averages and records for this station are not official NWS values.
T = Trace of Precipitation, MM = Missing Value Source: NWS Daily Summary

Daily Weather History Graph

Daily Weather History Graph

Search for Another Location

Airport:

Trip Planner

Search our weather history database for the weather conditions in past years. The results will help you decide how hot, cold, wet, or windy it might be!

Date:

Astronomy

Jun. 12, 2013 Rise Set
Actual Time 5:33 AM PDT 8:17 PM PDT
Civil Twilight 5:02 AM PDT 8:48 PM PDT
Nautical Twilight 4:23 AM PDT 9:27 PM PDT
Astronomical Twilight 3:39 AM PDT 10:11 PM PDT
Moon 9:13 AM PDT (6/12) 10:59 PM PDT (6/12)
Length of Visible Light 15h 46m
Length of Day
14h 44m
Waxing Crescent, 15% of the Moon is Illuminated
Jun 12
Waxing Crescent
Jun 16
First Quarter
Jun 23
Full
Jun 29
Last Quarter
Jul 8
New

Hourly Weather History & Observations

Time (PDT) Temp. Dew Point Humidity Pressure Visibility Wind Dir Wind Speed Gust Speed Precip Events Conditions
12:15 AM 57.2 °F 24.8 °F 29% 30.21 in 10.0 mi WNW 10.4 mph 16.1 mph N/A   Clear
12:35 AM 55.4 °F 26.6 °F 33% 30.20 in 10.0 mi Calm Calm - N/A   Clear
12:55 AM 55.4 °F 26.6 °F 33% 30.20 in 10.0 mi WSW 8.1 mph - N/A   Clear
1:15 AM 55.4 °F 26.6 °F 33% 30.20 in 10.0 mi SW 8.1 mph 19.6 mph N/A   Clear
1:35 AM 57.2 °F 24.8 °F 29% 30.20 in 10.0 mi West 6.9 mph - N/A   Clear
1:55 AM 55.4 °F 30.2 °F 38% 30.20 in 10.0 mi WNW 5.8 mph - N/A   Clear
2:15 AM 53.6 °F 32.0 °F 44% 30.19 in 10.0 mi ESE 6.9 mph - N/A   Clear
2:35 AM 51.8 °F 32.0 °F 47% 30.18 in 10.0 mi East 4.6 mph - N/A   Clear
2:55 AM 51.8 °F 32.0 °F 47% 30.19 in 10.0 mi South 6.9 mph - N/A   Clear
3:15 AM 51.8 °F 32.0 °F 47% 30.18 in 10.0 mi ESE 6.9 mph - N/A   Clear
3:35 AM 51.8 °F 32.0 °F 47% 30.18 in 10.0 mi SE 5.8 mph - N/A   Clear
3:55 AM 53.6 °F 30.2 °F 41% 30.18 in 10.0 mi NE 4.6 mph - N/A   Clear
4:15 AM 51.8 °F 32.0 °F 47% 30.18 in 10.0 mi Calm Calm - N/A   Clear
4:35 AM 50.0 °F 32.0 °F 50% 30.18 in 10.0 mi South 8.1 mph 17.3 mph N/A   Clear
4:55 AM 53.6 °F 30.2 °F 41% 30.18 in 10.0 mi ESE 4.6 mph - N/A   Clear
5:15 AM 51.8 °F 30.2 °F 44% 30.18 in 10.0 mi NE 4.6 mph 18.4 mph N/A   Clear
5:35 AM 53.6 °F 30.2 °F 41% 30.18 in 10.0 mi SSE 8.1 mph - N/A   Clear
5:55 AM 53.6 °F 30.2 °F 41% 30.19 in 10.0 mi ENE 5.8 mph - N/A   Clear
6:15 AM 55.4 °F 28.4 °F 36% 30.19 in 10.0 mi South 10.4 mph 17.3 mph N/A   Clear
6:35 AM 57.2 °F 30.2 °F 36% 30.19 in 10.0 mi SW 3.5 mph - N/A   Clear
6:55 AM 62.6 °F 26.6 °F 26% 30.19 in 10.0 mi SW 13.8 mph 19.6 mph N/A   Clear
7:15 AM 64.4 °F 24.8 °F 22% 30.19 in 10.0 mi SW 9.2 mph 21.9 mph N/A   Clear
7:35 AM 66.2 °F 24.8 °F 21% 30.19 in 10.0 mi WSW 17.3 mph 23.0 mph N/A   Clear
7:55 AM 66.2 °F 24.8 °F 21% 30.18 in 10.0 mi SW 17.3 mph 26.5 mph N/A   Clear
8:15 AM 68.0 °F 23.0 °F 18% 30.18 in 10.0 mi SW 23.0 mph 29.9 mph N/A   Clear
8:35 AM 68.0 °F 23.0 °F 18% 30.19 in 10.0 mi SW 20.7 mph 31.1 mph N/A   Clear
8:55 AM 68.0 °F 23.0 °F 18% 30.18 in 10.0 mi SW 18.4 mph 27.6 mph N/A   Clear
9:15 AM 69.8 °F 21.2 °F 16% 30.18 in 10.0 mi WSW 17.3 mph 39.1 mph N/A   Clear
9:35 AM 71.6 °F 19.4 °F 14% 30.19 in 10.0 mi WSW 21.9 mph 28.8 mph N/A   Clear
9:55 AM 71.6 °F 19.4 °F 14% 30.18 in 10.0 mi SSW 18.4 mph 39.1 mph N/A   Clear
10:15 AM 71.6 °F 19.4 °F 14% 30.19 in 10.0 mi SW 19.6 mph 33.4 mph N/A   Clear
10:35 AM 71.6 °F 21.2 °F 15% 30.20 in 10.0 mi SSW 17.3 mph 31.1 mph N/A   Clear
10:55 AM 73.4 °F 21.2 °F 14% 30.20 in 10.0 mi WSW 19.6 mph 31.1 mph N/A   Clear
11:15 AM 73.4 °F 19.4 °F 13% 30.21 in 10.0 mi SW 15.0 mph 27.6 mph N/A   Clear
11:35 AM 73.4 °F 21.2 °F 14% 30.21 in 10.0 mi WSW 18.4 mph 34.5 mph N/A   Clear
11:55 AM 75.2 °F 21.2 °F 13% 30.21 in 10.0 mi West 19.6 mph 27.6 mph N/A   Clear
12:15 PM 75.2 °F 21.2 °F 13% 30.20 in 10.0 mi SW 16.1 mph 21.9 mph N/A   Clear
12:35 PM 75.2 °F 21.2 °F 13% 30.20 in 10.0 mi WSW 12.7 mph 33.4 mph N/A   Clear
12:55 PM 75.2 °F 21.2 °F 13% 30.20 in 10.0 mi SW 8.1 mph 28.8 mph N/A   Clear
1:15 PM 75.2 °F 21.2 °F 13% 30.20 in 10.0 mi West 17.3 mph 31.1 mph N/A   Clear
1:35 PM 75.2 °F 23.0 °F 14% 30.19 in 10.0 mi West 23.0 mph 33.4 mph N/A   Clear
1:55 PM 75.2 °F 23.0 °F 14% 30.19 in 10.0 mi West 20.7 mph 28.8 mph N/A   Clear
2:15 PM 75.2 °F 23.0 °F 14% 30.19 in 10.0 mi WSW 17.3 mph 26.5 mph N/A   Clear
2:35 PM 75.2 °F 23.0 °F 14% 30.18 in 10.0 mi West 25.3 mph 35.7 mph N/A   Clear
2:55 PM 75.2 °F 24.8 °F 15% 30.17 in 10.0 mi WSW 18.4 mph 32.2 mph N/A   Clear
3:15 PM 75.2 °F 24.8 °F 15% 30.17 in 10.0 mi West 24.2 mph 34.5 mph N/A   Clear
3:35 PM 75.2 °F 26.6 °F 17% 30.16 in 10.0 mi WSW 23.0 mph 35.7 mph N/A   Clear
3:55 PM 75.2 °F 26.6 °F 17% 30.16 in 10.0 mi West 27.6 mph 39.1 mph N/A   Clear
4:15 PM 75.2 °F 26.6 °F 17% 30.14 in 10.0 mi SW 19.6 mph 38.0 mph N/A   Clear
4:35 PM 73.4 °F 24.8 °F 16% 30.14 in 10.0 mi WSW 20.7 mph 35.7 mph N/A   Clear
4:55 PM 73.4 °F 24.8 °F 16% 30.14 in 10.0 mi West 26.5 mph 38.0 mph N/A   Clear
5:15 PM 71.6 °F 24.8 °F 17% 30.14 in 10.0 mi SW 23.0 mph 32.2 mph N/A   Clear
5:35 PM 71.6 °F 24.8 °F 17% 30.14 in 10.0 mi SSW 8.1 mph 28.8 mph N/A   Clear
5:55 PM 71.6 °F 23.0 °F 16% 30.15 in 10.0 mi SW 4.6 mph 24.2 mph N/A   Clear
6:15 PM 71.6 °F 24.8 °F 17% 30.16 in 10.0 mi West 9.2 mph 20.7 mph N/A   Scattered Clouds
6:35 PM 69.8 °F 23.0 °F 17% 30.15 in 10.0 mi West 18.4 mph 38.0 mph N/A   Clear
6:55 PM 68.0 °F 26.6 °F 21% 30.15 in 10.0 mi West 23.0 mph 32.2 mph N/A   Clear
7:15 PM 68.0 °F 26.6 °F 21% 30.16 in 10.0 mi West 17.3 mph 26.5 mph N/A   Clear
7:35 PM 66.2 °F 26.6 °F 23% 30.16 in 10.0 mi West 19.6 mph 29.9 mph N/A   Clear
7:55 PM 64.4 °F 24.8 °F 22% 30.17 in 10.0 mi West 15.0 mph 21.9 mph N/A   Clear
8:15 PM 64.4 °F 23.0 °F 21% 30.16 in 10.0 mi WNW 13.8 mph 27.6 mph N/A   Clear
8:35 PM 64.4 °F 21.2 °F 19% 30.16 in 10.0 mi West 20.7 mph 27.6 mph N/A   Clear
8:55 PM 64.4 °F 19.4 °F 18% 30.15 in 10.0 mi WSW 24.2 mph 33.4 mph N/A   Clear
9:15 PM 62.6 °F 21.2 °F 20% 30.16 in 10.0 mi WSW 6.9 mph 24.2 mph N/A   Clear
9:35 PM 62.6 °F 21.2 °F 20% 30.16 in 10.0 mi SSW 10.4 mph 18.4 mph N/A   Clear
9:55 PM 62.6 °F 21.2 °F 20% 30.16 in 10.0 mi South 16.1 mph 28.8 mph N/A   Clear
10:15 PM 60.8 °F 21.2 °F 22% 30.17 in 10.0 mi ESE 4.6 mph - N/A   Clear
10:35 PM 60.8 °F 23.0 °F 23% 30.16 in 10.0 mi Calm Calm - N/A   Clear
10:55 PM 59.0 °F 23.0 °F 25% 30.16 in 10.0 mi WNW 8.1 mph - N/A   Clear
11:15 PM 57.2 °F 24.8 °F 29% 30.16 in 10.0 mi Calm Calm - N/A   Clear
11:35 PM 59.0 °F 21.2 °F 23% 30.16 in 10.0 mi SSW 12.7 mph 24.2 mph N/A   Clear
11:55 PM 60.8 °F 19.4 °F 20% 30.15 in 10.0 mi SSW 20.7 mph 32.2 mph N/A   Clear